Tracking 19847 objects as of 17-Sep-2019
HD Live streaming from Space Station
objects crossing your sky now

OPS 1264 (DMSP 4A F4)

Track OPS 1264 (DMSP 4A F4) now!
10-day predictions
OPS 1264 (DMSP 4A F4) is classified as:


NORAD ID: 2980
Int'l Code: 1967-096A
Perigee: 632.3 km
Apogee: 772.7 km
Inclination: 99.2 °
Period: 98.7 minutes
Semi major axis: 7073 km
RCS: 0.6338 m2 (medium)
Launch date: October 11, 1967
Source: United States (US)
Launch site: AIR FORCE WESTERN TEST RANGE (AFWTR)
aabbcc
Your satellite tracking list
Your tracking list is empty




NASA's NSSDC Master Catalog

Two Line Element Set (TLE):
1  2980U 67096A   19259.92908482 +.00000003 +00000-0 +12940-4 0  9998
2  2980 099.1907 024.8730 0099233 023.6793 336.8925 14.59328913727272
Source of the keplerian elements: AFSPC